Torna al catalogo

STARLINK-35393

AttivoComunicazioniVLEO
NORAD 65827·PAYLOAD·🇺🇸 United States

Lanciato Sep 29, 2025 da Vandenberg Space Force Base

Loading…

Prossimi Passaggi (prossime 24 ore)

TLE

AggiornatoSource: CelesTrak SupGP

Epoca: Sep 15, 2026, 02:37 UTC

1 65827C 25221E   26258.10951389  .00009391  00000+0  27740-3 0  2581
2 65827  53.1591 284.5976 0001318  91.8068 122.6670 15.34393482    17

Traccia STARLINK-35393 in tempo reale con AllMySat

Download on the App Store